Wetbulb
56.37 56.20 55.96 55.78 55.53 55.28 54.75 54.77 54.75 54.38 54.49 54.88 55.12 55.10 55.21 55.28 55.26 55.39 55.33 56.35 57.22 57.69 57.52 57.72 58.28 60.07 56.22 48.89 48.13 60.07 64.40 63.19 59.76 57.05 52.75 51.27 47.64 46.44 43.32 45.02 45.56 43.13 45.44 46.97 47.90 47.40 47.16
55.90 55.71 55.36 55.16 54.82 54.57 54.43 54.22 53.78 53.84 53.97 54.20 54.62 54.79 54.57 54.59 54.72 54.82 54.95 56.24 56.56 57.21 56.94 57.12 58.19 59.99 53.38 43.00 53.61 59.76 60.46 57.57 57.14 54.63 51.91 51.75 49.08 49.07 45.49 44.66 43.52 45.62 45.73 45.32 46.93 46.97 47.35
54.79 54.45 53.94 53.57 53.58 53.78 54.05 53.57 53.31 53.35 53.70 53.93 54.07 54.14 54.12 54.06 54.20 54.48 54.82 56.34 56.80 56.50 56.48 57.10 59.60 56.52 49.19 47.83 57.85 60.27 58.20 56.43 56.58 53.92 50.09 51.92 51.68 47.86 46.50 43.39 46.61 44.78 41.32 42.88 44.55 46.02 45.02
53.77 53.68 53.51 53.39 53.34 53.22 53.07 52.89 52.75 52.70 53.36 53.51 53.54 53.50 53.56 53.58 53.64 53.96 54.98 57.06 56.46 56.29 56.03 57.90 59.43 54.96 45.81 53.85 56.09 58.94 56.92 53.29 54.79 54.59 53.68 53.17 52.71 49.27 46.56 46.96 45.10 41.18 40.17 36.19 43.64 45.21 45.34
53.53 53.16 52.31 52.30 52.28 52.53 52.60 52.46 52.06 52.25 52.69 52.93 52.99 53.00 52.98 53.09 53.22 53.59 55.03 57.39 56.22 56.22 56.93 59.16 54.56 52.07 45.40 55.34 52.97 57.05 55.73 51.67 52.52 52.67 52.99 52.92 51.90 46.36 45.92 40.78 37.79 39.25 33.75 36.37 39.58 44.65 43.39
52.34 53.46 53.31 52.63 52.26 51.99 52.05 52.46 52.38 51.89 52.25 52.36 52.52 52.44 52.42 52.48 52.78 53.52 54.84 57.52 57.46 57.88 57.42 56.67 53.58 46.06 47.75 45.50 51.97 54.99 55.05 53.63 49.67 49.36 48.61 47.62 45.71 40.91 40.34 37.37 31.79 35.08 34.75 37.53 36.96 41.65 42.25
53.24 52.14 51.83 52.19 52.07 51.57 51.47 51.61 51.75 51.90 51.62 51.70 51.84 51.85 51.94 52.00 52.48 53.15 55.22 55.48 51.37 48.44 50.32 45.83 45.90 46.84 46.98 50.83 54.24 51.69 52.68 50.83 49.41 46.36 40.09 43.89 38.43 35.67 39.08 40.67 41.20 40.12 37.75 37.01 40.15 42.99 39.02
51.36 51.72 51.50 51.51 51.46 51.68 51.23 50.97 50.54 50.66 51.14 51.21 51.33 51.23 51.36 51.62 51.85 52.97 52.47 50.97 50.53 51.24 44.65 49.19 48.82 48.14 49.68 50.84 45.51 48.78 52.32 45.50 44.45 39.29 42.74 39.36 35.39 41.88 43.86 43.11 41.10 39.63 36.52 36.37 40.27 43.15 37.85
51.21 50.98 50.79 50.94 50.86 50.72 50.74 50.66 50.14 50.59 50.80 50.89 50.84 50.79 50.97 51.11 52.60 50.97 50.81 52.38 55.02 54.35 44.69 45.76 48.26 47.13 46.91 48.60 45.67 45.15 48.32 46.02 42.44 40.02 40.08 37.33 40.63 43.80 42.36 40.29 38.86 37.66 35.63 36.50 37.62 39.80 38.13
50.62 50.62 50.47 50.00 49.95 50.00 49.72 50.05 49.89 50.25 50.28 50.36 50.36 50.54 50.91 50.99 48.01 49.76 46.85 53.45 55.53 54.64 38.51 40.28 43.29 47.09 48.00 48.42 43.36 49.22 49.23 46.30 42.79 39.44 40.49 39.04 43.13 41.57 40.24 39.29 39.52 34.77 40.95 40.80 39.52 35.35 29.47
50.03 49.96 49.22 49.50 49.15 48.99 49.03 49.40 49.76 49.98 49.99 49.94 50.03 50.43 50.51 51.55 49.35 48.67 52.58 54.95 54.74 50.91 27.37 42.08 43.68 51.62 48.62 44.81 43.39 44.09 48.64 45.87 40.52 40.68 40.38 37.97 38.45 38.35 38.22 39.46 41.10 38.01 41.48 39.91 38.85 34.95 32.35
49.12 49.07 48.88 48.99 48.69 48.85 48.90 48.93 49.21 49.57 49.58 49.49 49.92 50.54 50.76 50.89 50.01 52.92 55.24 54.76 51.54 36.71 25.49 38.73 43.16 41.84 42.07 43.92 43.53 44.36 44.35 46.73 45.57 41.85 40.66 39.86 43.07 41.40 40.42 41.99 41.27 42.42 39.27 38.58 36.75 34.35 26.21
48.67 48.87 48.58 48.37 48.30 48.46 48.49 48.61 48.99 49.27 49.14 49.64 50.75 51.34 50.58 52.85 46.68 51.74 54.63 50.28 35.48 27.80 41.26 37.09 38.06 41.38 40.94 39.82 40.30 40.86 39.51 38.09 35.95 31.81 32.22 37.92 38.26 40.15 41.99 37.90 39.77 39.02 35.70 27.62 25.81 25.62 25.54
48.86 48.26 48.55 48.07 48.16 48.09 48.18 48.20 48.62 49.00 48.69 49.29 50.54 51.29 51.90 46.77 48.85 50.11 51.96 42.23 29.50 35.47 37.20 42.64 41.37 40.72 38.19 40.33 39.60 40.07 37.87 34.67 38.68 37.58 34.35 30.47 28.76 37.47 41.36 38.51 36.05 35.86 35.83 28.56 23.90 23.85 26.08
47.59 47.95 47.93 47.44 47.67 47.79 47.82 47.97 48.30 48.19 48.02 48.76 50.28 50.99 45.48 46.68 50.80 52.23 46.63 33.73 31.71 35.63 39.70 39.35 40.11 36.76 36.83 39.19 38.62 38.02 36.83 36.25 36.68 37.04 33.17 32.53 31.78 37.65 37.98 39.41 38.37 35.93 31.91 37.02 31.58 31.30 26.63
47.34 46.78 46.93 47.27 47.53 47.50 47.45 47.49 47.86 47.71 47.69 48.29 47.78 49.91 43.80 49.12 52.54 50.75 41.84 36.11 34.39 36.45 38.14 39.66 34.97 38.21 34.49 36.30 35.63 36.34 35.94 34.90 34.04 35.45 36.35 34.21 29.36 36.01 36.09 39.05 37.92 35.54 37.55 30.90 31.84 24.15 22.87
46.62 46.92 47.04 47.01 46.78 46.81 46.82 46.89 47.45 47.42 47.49 48.50 47.67 44.05 44.53 52.23 51.36 45.29 35.67 35.03 33.84 36.92 38.33 35.33 36.82 35.60 36.48 36.10 37.10 36.01 35.44 31.55 33.11 34.34 34.50 32.12 31.05 27.80 34.00 27.26 28.34 33.15 33.19 34.00 32.97 31.62 24.81
46.26 46.65 46.68 46.52 46.31 46.42 46.37 46.33 47.05 46.96 46.84 47.32 47.35 37.32 44.46 48.71 39.44 40.05 35.37 32.87 34.50 33.11 35.80 34.79 35.75 33.28 33.28 34.43 33.67 32.58 28.06 27.30 31.27 31.91 29.34 29.79 27.97 21.61 24.32 29.27 30.99 27.95 25.67 27.37 24.79 24.13 23.80
46.62 46.49 46.23 45.93 45.80 46.01 45.90 45.80 46.58 46.56 45.92 40.28 40.62 37.46 44.63 44.39 34.52 33.52 31.62 29.07 30.81 31.52 29.53 31.01 30.46 32.28 31.61 30.12 27.10 28.10 25.86 29.81 31.82 30.01 25.98 27.47 23.51 16.72 19.93 24.04 28.17 23.37 23.52 25.13 26.50 25.16 19.73
45.78 45.91 45.55 45.53 45.47 46.16 45.76 46.10 46.73 46.42 46.13 40.98 36.27 31.63 37.27 37.93 37.52 35.50 30.65 29.01 25.96 31.26 29.00 30.24 28.83 30.98 28.75 27.44 30.55 25.32 23.95 27.49 31.03 30.21 33.07 31.75 24.67 20.34 16.59 19.80 23.59 20.51 21.12 22.02 19.12 13.18 13.57
45.46 45.32 45.05 44.95 44.91 45.10 45.05 46.15 46.51 46.74 46.24 41.28 35.17 30.14 30.70 30.85 32.50 34.90 34.02 30.26 25.94 24.70 29.38 30.41 27.05 27.29 26.56 23.32 24.79 23.37 24.28 25.20 27.60 30.10 27.69 27.96 17.87 21.62 20.71 22.72 21.91 18.17 17.78 18.52 16.52 9.81 9.73
44.74 44.99 44.80 44.71 44.47 44.32 44.49 45.09 45.82 46.18 45.83 37.08 31.48 29.94 32.31 28.74 30.51 30.96 30.38 27.52 26.50 24.95 26.50 25.51 25.05 26.88 27.28 22.90 24.46 22.53 24.05 23.89 23.10 26.39 25.03 25.85 19.05 21.46 17.27 20.46 20.63 13.54 14.18 15.63 15.73 11.37 6.68
44.42 43.81 43.79 44.07 43.90 43.78 43.76 43.88 44.08 45.08 42.65 34.66 34.80 35.87 31.30 29.37 27.61 26.05 24.30 26.02 26.13 26.21 26.96 29.58 27.40 24.51 22.61 24.50 27.47 27.72 28.12 27.41 26.20 23.85 22.15 21.87 19.00 14.95 7.46 17.96 17.84 7.79 6.24 12.17 11.68 8.42 7.40
43.72 43.62 43.47 43.27 43.21 43.33 43.06 43.28 43.36 43.46 42.99 37.26 34.15 32.51 30.03 24.17 25.77 25.16 26.36 27.17 25.97 26.31 23.35 27.28 28.50 25.07 27.40 31.77 30.89 29.47 27.67 26.46 25.96 25.09 26.44 20.99 19.64 18.79 7.61 15.63 1.46 3.47 10.74 9.93 8.30 6.56 6.95
43.18 43.02 42.82 42.64 42.57 43.01 42.51 42.40 42.87 42.90 43.19 38.34 36.75 32.68 30.45 24.00 26.02 25.80 26.08 25.15 26.18 26.88 24.84 25.36 27.40 29.01 31.76 28.32 23.27 20.57 19.72 20.27 19.17 22.04 22.93 25.16 20.33 10.09 6.94 7.14 4.27 2.45 3.23 2.96 2.22 0.42 -0.53
42.37 42.36 42.13 42.01 41.91 42.14 42.01 42.12 41.95 42.22 42.65 38.77 37.42 36.74 32.98 26.92 23.16 27.80 24.88 25.58 21.83 20.99 22.60 24.91 29.68 31.29 28.66 26.14 23.26 12.60 12.03 17.40 14.19 16.21 22.63 22.85 22.56 16.34 10.35 2.92 -0.15 -0.71 3.92 3.83 -0.83 -0.75 -1.06
43.23 42.57 41.97 41.39 41.41 41.99 41.60 41.72 41.37 41.64 41.93 38.62 37.96 37.39 33.31 26.91 27.97 28.17 24.19 23.83 26.83 23.95 22.11 23.22 24.49 24.63 27.19 23.15 20.74 14.35 13.21 19.38 11.93 11.51 12.57 14.79 14.04 8.43 9.95 0.46 -4.06 -0.73 0.26 1.38 -1.93 -0.13 -1.07
42.37 42.05 41.60 41.39 41.31 41.35 41.26 41.67 41.25 41.09 41.23 38.62 36.82 37.48 33.92 28.06 25.77 27.42 26.74 25.18 26.02 26.03 21.50 24.31 22.85 23.19 22.58 20.64 20.09 17.42 15.62 13.62 9.02 8.29 5.15 6.25 5.46 4.68 4.06 -0.41 -1.70 2.35 -0.65 -0.09 -3.42 -5.95 -5.92
41.57 41.86 41.60 41.28 40.91 40.57 41.01 41.14 40.72 40.57 40.88 40.58 34.68 38.26 35.12 28.18 24.62 28.66 28.08 27.92 26.43 26.67 26.28 26.34 24.57 24.44 25.86 23.14 21.69 18.69 11.05 12.27 8.57 0.31 8.83 0.50 -1.52 0.42 -2.75 -2.77 -3.28 -3.45 -2.83 -6.95 -8.37 -8.54 -7.58
MSLP
1016.70 1016.40 1016.13 1015.83 1015.43 1015.12 1014.69 1014.36 1014.10 1013.76 1013.29 1012.98 1012.57 1012.24 1011.91 1011.62 1011.37 1011.11 1010.71 1010.43 1010.16 1010.06 1010.27 1010.58 1010.76 1010.91 1011.21 1010.10 1008.07 1007.28 1007.79 1008.14 1008.78 1009.14 1009.11 1008.99 1009.26 1009.67 1009.37 1009.22 1009.26 1009.28 1009.15 1009.36 1009.73 1010.87 1011.69
1016.93 1016.59 1016.21 1015.88 1015.48 1015.16 1014.75 1014.34 1014.00 1013.62 1013.22 1012.85 1012.55 1012.16 1011.89 1011.62 1011.39 1011.09 1010.64 1010.28 1010.01 1009.99 1010.21 1010.52 1010.70 1010.89 1010.56 1008.79 1007.19 1007.02 1007.51 1008.22 1008.33 1008.78 1008.75 1008.89 1008.98 1009.09 1008.98 1008.84 1008.95 1008.85 1009.25 1009.30 1010.02 1011.02 1012.24
1017.16 1016.70 1016.25 1015.88 1015.52 1015.18 1014.77 1014.35 1013.96 1013.56 1013.11 1012.75 1012.41 1012.12 1011.83 1011.52 1011.24 1010.95 1010.60 1010.23 1009.93 1009.96 1010.19 1010.52 1010.53 1010.52 1009.40 1007.99 1007.30 1007.27 1007.84 1008.06 1008.26 1008.48 1008.50 1008.70 1008.82 1009.09 1008.92 1008.76 1008.52 1008.99 1009.40 1009.52 1010.01 1010.89 1012.80
1017.32 1016.86 1016.39 1015.98 1015.66 1015.22 1014.79 1014.32 1013.93 1013.54 1013.08 1012.62 1012.31 1012.01 1011.68 1011.35 1011.05 1010.79 1010.49 1009.89 1009.77 1009.96 1010.20 1010.29 1010.43 1010.36 1008.78 1007.56 1007.28 1007.59 1007.68 1007.93 1008.40 1008.33 1008.39 1008.57 1008.99 1009.20 1009.12 1009.04 1009.05 1009.42 1009.75 1009.72 1009.57 1010.77 1012.36
1017.40 1016.94 1016.49 1016.07 1015.69 1015.23 1014.72 1014.28 1013.82 1013.46 1012.98 1012.55 1012.17 1011.85 1011.55 1011.27 1010.95 1010.64 1010.31 1009.86 1009.91 1009.96 1010.09 1010.09 1010.36 1009.85 1008.22 1007.93 1007.59 1007.45 1007.70 1007.94 1008.33 1008.55 1008.60 1008.94 1009.38 1009.56 1009.54 1009.60 1009.53 1009.51 1009.20 1009.58 1010.31 1010.92 1012.40
1017.42 1016.92 1016.54 1016.23 1015.74 1015.24 1014.67 1014.28 1013.89 1013.32 1012.84 1012.41 1012.05 1011.69 1011.42 1011.11 1010.84 1010.52 1010.21 1010.00 1009.91 1009.81 1010.00 1009.66 1009.27 1009.56 1007.96 1007.16 1007.16 1007.32 1007.57 1007.96 1008.33 1008.85 1009.29 1009.45 1009.64 1009.75 1009.80 1009.75 1008.99 1008.96 1008.97 1008.96 1009.82 1011.20 1012.75
1017.59 1017.07 1016.66 1016.32 1015.69 1015.21 1014.62 1014.18 1013.77 1013.26 1012.67 1012.21 1011.84 1011.55 1011.29 1011.03 1010.71 1010.50 1010.20 1009.98 1010.18 1009.59 1008.88 1007.74 1007.42 1007.18 1006.91 1007.25 1007.33 1007.67 1007.64 1008.03 1008.31 1008.84 1009.15 1009.49 1009.74 1009.42 1009.37 1009.31 1008.65 1008.59 1008.40 1008.71 1009.82 1011.67 1013.93
1017.86 1017.34 1016.81 1016.30 1015.65 1015.06 1014.62 1014.15 1013.57 1012.99 1012.47 1011.98 1011.61 1011.33 1011.07 1010.87 1010.72 1010.43 1010.45 1009.01 1007.92 1007.94 1007.59 1007.15 1007.08 1006.97 1006.94 1007.01 1007.34 1007.67 1007.59 1007.97 1008.34 1008.68 1008.87 1009.62 1009.23 1009.16 1008.92 1008.87 1008.83 1008.75 1008.71 1008.92 1010.14 1011.61 1014.02
1017.96 1017.47 1016.90 1016.33 1015.68 1015.12 1014.55 1014.04 1013.38 1012.78 1012.18 1011.69 1011.28 1010.98 1010.73 1010.58 1010.52 1010.46 1009.39 1008.19 1007.69 1007.51 1007.08 1006.65 1006.62 1006.43 1006.74 1007.06 1006.82 1007.46 1007.83 1007.65 1008.05 1008.53 1008.54 1008.82 1008.45 1008.54 1008.71 1008.71 1008.80 1008.77 1008.96 1009.00 1010.09 1011.73 1014.65
1018.05 1017.55 1017.05 1016.33 1015.69 1015.22 1014.52 1013.81 1013.14 1012.54 1011.96 1011.38 1010.86 1010.55 1010.36 1010.25 1010.63 1009.14 1008.82 1007.82 1007.82 1007.75 1007.23 1006.44 1006.34 1005.80 1006.22 1006.55 1007.13 1007.22 1007.57 1007.63 1007.85 1008.05 1008.40 1008.79 1008.55 1008.52 1008.47 1008.65 1008.96 1009.00 1008.84 1009.11 1010.23 1011.63 1013.91
1018.14 1017.75 1017.18 1016.54 1015.73 1015.12 1014.40 1013.66 1013.02 1012.29 1011.59 1010.92 1010.35 1010.04 1009.96 1009.99 1009.46 1008.42 1008.17 1007.52 1007.65 1007.87 1007.15 1006.02 1005.92 1005.83 1005.92 1006.61 1007.19 1007.85 1007.90 1007.82 1007.86 1007.81 1008.32 1008.60 1008.65 1008.72 1008.75 1008.70 1008.80 1009.04 1008.93 1009.24 1010.24 1011.62 1013.10
1018.30 1017.82 1017.27 1016.60 1015.86 1015.15 1014.39 1013.58 1012.76 1011.82 1011.05 1010.33 1009.81 1009.61 1009.58 1009.55 1009.38 1008.41 1008.09 1007.87 1007.95 1008.22 1006.15 1005.52 1005.88 1006.05 1006.39 1006.65 1007.31 1007.93 1008.09 1008.09 1008.06 1008.18 1008.71 1009.01 1009.04 1009.08 1009.08 1009.07 1009.08 1009.21 1009.59 1010.10 1010.81 1012.17 1013.51
1018.60 1017.96 1017.27 1016.70 1015.98 1015.22 1014.44 1013.47 1012.55 1011.52 1010.67 1009.89 1009.36 1009.13 1009.36 1008.43 1008.49 1008.21 1008.11 1008.07 1008.22 1006.88 1005.05 1005.72 1005.62 1005.90 1006.25 1006.80 1007.42 1007.67 1008.12 1008.51 1008.58 1009.13 1009.32 1009.43 1009.62 1009.67 1009.54 1009.70 1009.79 1009.83 1010.21 1011.34 1012.19 1012.95 1013.16
1018.65 1018.34 1017.63 1016.83 1016.13 1015.32 1014.45 1013.59 1012.60 1011.46 1010.60 1009.74 1009.20 1008.98 1008.78 1008.55 1008.45 1008.30 1008.21 1008.21 1007.75 1005.52 1005.81 1005.65 1005.58 1006.18 1006.50 1007.01 1007.68 1007.79 1008.46 1008.99 1009.43 1009.61 1009.71 1009.81 1010.44 1010.22 1009.96 1009.92 1010.03 1010.31 1010.26 1010.52 1011.40 1012.35 1013.44
1019.00 1018.46 1017.99 1017.00 1016.28 1015.43 1014.46 1013.50 1012.36 1011.34 1010.43 1009.61 1009.05 1008.63 1008.48 1008.50 1008.43 1008.34 1008.40 1008.26 1007.64 1007.65 1007.31 1006.77 1006.48 1006.59 1006.84 1007.42 1007.90 1008.36 1008.68 1009.46 1010.22 1010.62 1010.79 1010.24 1010.91 1011.09 1011.01 1010.88 1010.91 1010.72 1010.86 1010.80 1011.60 1012.35 1014.52
1019.57 1018.76 1017.95 1017.30 1016.39 1015.54 1014.66 1013.62 1012.37 1011.16 1010.17 1009.65 1008.99 1007.87 1008.20 1008.32 1008.36 1008.47 1008.53 1008.32 1008.82 1009.06 1008.74 1008.06 1007.24 1006.92 1007.14 1007.78 1008.23 1008.53 1009.40 1010.98 1011.47 1011.66 1011.56 1011.30 1011.66 1011.96 1012.07 1011.95 1011.77 1011.58 1011.81 1012.03 1012.62 1013.80 1015.79
1019.63 1019.01 1018.23 1017.56 1016.69 1015.76 1014.88 1013.82 1012.47 1011.03 1009.79 1009.28 1008.86 1007.94 1008.37 1008.18 1008.40 1008.54 1008.69 1008.74 1009.58 1009.96 1009.76 1009.40 1008.44 1008.08 1007.75 1007.77 1008.56 1009.37 1010.56 1012.45 1012.64 1012.57 1012.32 1012.41 1012.38 1013.49 1013.21 1014.27 1014.15 1013.38 1013.30 1013.52 1013.91 1014.67 1016.74
1019.95 1019.40 1018.66 1017.86 1017.01 1016.00 1015.09 1014.01 1012.62 1011.19 1009.64 1008.99 1008.53 1008.26 1008.42 1008.31 1008.68 1008.53 1009.16 1010.05 1010.35 1010.71 1010.57 1010.28 1009.93 1009.75 1009.37 1009.32 1009.81 1010.76 1012.26 1013.67 1014.16 1013.90 1013.50 1013.91 1013.95 1014.98 1015.88 1016.43 1016.30 1016.47 1016.75 1016.65 1016.88 1017.55 1019.10
1020.83 1019.94 1019.03 1018.25 1017.38 1016.39 1015.35 1014.27 1013.00 1011.60 1010.57 1010.30 1009.23 1008.64 1008.52 1008.43 1008.80 1009.26 1010.49 1011.17 1011.52 1011.44 1011.64 1011.37 1011.17 1011.15 1011.13 1011.29 1012.01 1012.76 1014.15 1015.36 1015.07 1014.98 1015.20 1015.13 1015.39 1016.77 1017.74 1018.13 1018.10 1018.73 1019.56 1019.56 1019.94 1020.78 1022.44
1021.00 1020.50 1019.50 1018.69 1017.79 1016.75 1015.68 1014.62 1013.32 1011.94 1010.82 1010.65 1009.99 1009.37 1009.14 1009.03 1009.19 1009.18 1010.30 1011.20 1012.09 1012.46 1012.57 1012.37 1012.36 1012.13 1012.42 1012.84 1013.20 1014.28 1015.49 1016.26 1016.17 1016.11 1016.09 1015.97 1016.99 1017.65 1018.38 1019.04 1019.59 1021.06 1021.97 1022.35 1022.88 1024.64 1026.33
1021.49 1020.89 1019.95 1019.16 1018.26 1017.26 1016.26 1015.02 1013.62 1012.24 1010.91 1010.67 1010.53 1010.95 1011.03 1010.19 1010.01 1009.81 1010.31 1011.35 1012.34 1013.02 1013.19 1012.99 1013.03 1012.94 1013.04 1013.85 1014.45 1015.27 1016.21 1016.83 1017.10 1017.03 1017.08 1017.23 1018.60 1019.43 1020.29 1020.90 1021.78 1023.36 1024.59 1025.30 1026.19 1028.06 1029.86
1022.20 1021.24 1020.46 1019.73 1018.91 1017.88 1016.82 1015.84 1014.70 1013.20 1011.53 1011.37 1012.17 1012.23 1011.51 1011.64 1011.23 1010.97 1011.43 1011.83 1012.55 1013.76 1013.82 1013.62 1013.63 1013.76 1013.77 1014.52 1014.69 1015.53 1016.07 1016.74 1017.21 1017.69 1017.96 1018.47 1019.87 1020.72 1022.10 1022.81 1023.84 1025.89 1027.29 1028.21 1029.36 1031.09 1032.76
1022.49 1021.84 1021.10 1020.42 1019.63 1018.71 1017.79 1016.86 1015.88 1014.77 1013.73 1013.48 1013.58 1012.89 1012.76 1012.64 1012.18 1012.07 1012.61 1012.77 1013.29 1014.04 1014.67 1014.24 1014.63 1014.88 1015.46 1016.05 1015.97 1016.27 1016.64 1017.33 1017.81 1018.31 1018.94 1019.58 1020.67 1021.89 1023.72 1024.63 1025.90 1028.84 1030.76 1031.27 1032.41 1033.88 1035.24
1022.80 1022.31 1021.75 1021.04 1020.20 1019.37 1018.49 1017.80 1016.91 1016.16 1015.69 1015.71 1015.72 1015.18 1013.66 1013.49 1013.33 1013.40 1013.53 1013.65 1014.26 1014.50 1015.08 1015.37 1015.40 1015.81 1017.04 1016.80 1016.86 1017.49 1018.03 1018.76 1019.36 1019.79 1019.79 1020.36 1021.47 1022.94 1025.21 1026.44 1029.06 1032.13 1033.16 1033.98 1034.84 1036.40 1037.47
1022.93 1022.54 1022.07 1021.49 1020.66 1019.93 1019.12 1018.49 1017.68 1016.88 1016.29 1015.98 1016.17 1015.89 1014.91 1014.52 1014.50 1014.73 1014.76 1014.86 1015.15 1015.65 1016.26 1016.74 1016.59 1016.50 1016.85 1016.99 1017.47 1018.51 1019.38 1020.06 1021.39 1021.58 1021.41 1021.50 1022.57 1024.91 1026.84 1028.89 1031.94 1033.78 1035.25 1036.19 1036.80 1038.74 1039.52
1023.10 1022.56 1022.01 1021.46 1020.97 1020.26 1019.65 1018.87 1018.25 1017.44 1016.74 1016.37 1016.32 1016.18 1015.81 1015.23 1016.08 1015.63 1015.65 1015.84 1015.89 1016.30 1017.19 1017.89 1017.86 1017.53 1017.55 1017.39 1017.64 1018.79 1019.94 1021.15 1022.84 1023.40 1023.27 1023.50 1023.94 1025.76 1028.08 1030.67 1033.58 1035.40 1036.88 1037.76 1038.51 1040.09 1041.00
1022.97 1022.83 1022.29 1021.78 1021.24 1020.52 1019.96 1019.25 1018.55 1017.89 1017.17 1016.76 1016.57 1016.50 1016.29 1016.30 1017.37 1017.09 1016.77 1016.63 1016.26 1016.57 1017.26 1017.95 1018.25 1018.25 1018.11 1017.97 1018.55 1019.68 1021.24 1022.24 1023.93 1025.14 1025.79 1026.19 1027.11 1028.51 1030.06 1032.57 1035.71 1036.89 1038.17 1039.03 1040.46 1041.92 1042.01
1022.59 1022.66 1022.42 1021.90 1021.38 1020.83 1020.19 1019.42 1018.85 1018.24 1017.51 1017.13 1016.85 1016.73 1016.83 1017.19 1018.76 1018.60 1018.52 1018.28 1017.82 1017.50 1017.74 1018.09 1018.37 1018.55 1018.62 1018.79 1019.53 1020.93 1022.58 1024.31 1026.08 1028.05 1028.97 1029.84 1030.84 1031.85 1033.20 1035.08 1037.27 1038.29 1039.70 1040.86 1041.62 1042.18 1042.80
1022.75 1022.34 1022.38 1021.89 1021.37 1020.95 1020.27 1019.64 1019.08 1018.49 1017.76 1017.27 1017.09 1016.93 1017.18 1018.11 1019.86 1019.85 1019.83 1020.07 1020.09 1019.68 1018.99 1018.32 1018.22 1018.39 1019.17 1019.43 1020.57 1022.33 1024.38 1025.91 1027.64 1030.17 1031.48 1033.28 1034.12 1034.91 1036.54 1037.77 1038.70 1039.80 1040.91 1041.67 1042.15 1043.29 1043.73
Wind_Speed
15 15 15 16 16 16 16 15 15 15 16 16 15 15 15 15 15 15 13 10 7 7 8 8 9 8 6 5 7 8 9 14 12 13 14 13 8 8 7 10 8 7 5 6 8 7 9
16 16 17 17 17 17 17 17 17 16 16 16 16 15 15 14 15 14 13 11 7 6 8 8 10 8 6 7 3 4 9 13 14 15 12 9 7 11 4 7 7 8 8 5 7 8 13
17 17 16 16 16 17 18 17 17 18 17 16 16 16 15 14 14 14 14 11 7 8 9 10 9 9 7 4 3 6 12 11 11 9 10 9 2 6 5 1 2 2 2 4 6 8 18
18 18 19 18 18 18 18 18 17 17 17 17 17 16 16 15 14 14 14 11 7 9 10 9 8 7 6 4 4 8 10 9 12 7 7 5 5 6 3 3 3 4 5 6 11 13 11
18 18 19 18 19 18 19 19 19 18 18 17 17 16 16 15 14 14 13 1 8 10 11 10 7 5 3 1 8 9 6 11 8 5 5 4 2 3 2 4 5 7 6 8 6 10 7
18 18 18 19 19 19 19 20 21 19 19 18 17 16 15 15 14 13 12 7 9 12 8 8 6 3 5 7 5 8 8 10 7 8 5 5 4 4 3 5 7 7 6 9 10 8 9
19 21 21 21 20 21 21 20 20 21 20 18 18 16 15 14 13 11 5 5 5 4 7 9 9 4 9 6 5 7 6 11 6 7 6 7 4 9 9 12 15 8 5 5 11 18 16
20 20 20 21 22 22 21 21 21 21 21 20 18 16 14 12 10 8 4 5 5 4 5 16 5 8 5 7 6 9 9 8 8 7 7 4 10 9 10 8 10 8 8 5 9 14 17
20 21 21 22 22 23 22 23 23 22 22 21 20 17 13 10 8 3 8 8 5 7 5 7 10 7 5 5 7 14 10 5 7 9 10 8 1 14 10 5 5 6 6 7 9 6 18
21 21 22 22 23 24 24 24 24 24 24 22 20 16 11 6 1 5 5 8 9 5 4 9 8 6 8 5 3 10 7 3 6 12 8 6 7 4 4 7 7 7 8 8 7 9 6
22 23 23 24 24 24 25 25 26 25 25 23 19 13 8 7 7 4 4 3 2 2 4 8 9 3 8 4 12 3 2 1 6 5 6 3 5 5 7 6 9 3 3 5 5 6 4
22 23 24 25 25 26 26 26 27 27 26 23 17 11 6 4 3 4 3 2 2 2 8 6 7 8 9 7 3 5 5 1 3 3 1 1 3 3 2 4 2 7 5 4 1 2 5
23 24 25 25 26 27 27 28 28 29 28 22 17 6 4 4 1 3 3 3 3 6 5 8 8 10 12 9 7 7 10 6 5 5 6 6 5 3 1 5 3 3 7 3 2 2 7
23 23 25 26 27 28 28 29 29 29 27 21 16 3 5 1 3 3 2 2 6 8 4 4 7 12 9 13 5 8 11 7 2 2 3 7 4 7 6 1 6 7 7 5 6 6 4
24 25 25 26 28 29 30 31 32 30 26 20 15 3 3 1 1 3 2 6 2 6 5 2 6 13 4 5 4 7 8 7 4 4 3 7 5 4 6 4 2 5 5 3 3 3 1
24 23 26 27 28 29 31 32 33 31 25 18 4 3 3 2 3 1 3 7 3 3 5 3 4 9 10 13 7 8 10 3 5 4 4 3 5 1 2 3 1 2 3 3 2 4 5
24 25 26 27 28 30 31 32 34 33 25 15 3 3 2 3 2 2 3 4 5 3 4 4 4 2 6 11 8 9 6 4 6 2 4 4 1 2 2 7 5 2 2 2 1 3 2
24 25 26 28 29 30 32 33 35 33 27 2 4 2 2 1 2 1 1 5 3 2 3 1 3 8 5 3 3 4 6 6 5 3 1 3 2 5 5 4 6 5 4 5 2 2 3
26 26 27 28 29 31 33 35 36 33 19 4 3 2 0 1 2 2 4 3 4 1 3 3 3 4 4 4 4 6 6 4 5 5 3 3 1 5 3 2 3 6 4 3 2 2 2
25 26 27 28 30 31 33 34 35 36 20 2 3 1 1 2 2 1 4 4 3 3 2 3 3 2 4 3 6 5 5 3 6 4 6 1 5 3 5 4 3 5 4 4 3 4 2
24 26 27 28 30 31 33 33 35 38 28 2 3 3 0 2 2 3 3 5 4 3 2 2 3 4 2 5 4 5 4 5 4 3 3 3 5 5 8 8 7 7 7 7 5 1 4
26 26 27 28 29 30 32 32 34 37 30 4 4 4 3 3 6 3 1 2 5 3 4 1 4 3 5 5 1 6 7 4 3 3 3 3 4 3 4 6 6 6 7 5 7 4 7
24 25 27 28 28 29 30 31 32 33 22 5 5 2 2 3 2 4 2 2 6 8 7 6 12 14 15 11 13 13 13 10 6 4 3 3 5 2 2 4 5 3 4 6 5 6 3
23 25 26 26 27 28 28 29 29 29 22 5 3 3 4 2 5 2 2 6 5 4 6 4 6 6 4 11 14 15 16 15 13 11 7 5 3 3 3 3 1 2 3 3 7 5 5
23 23 25 26 26 27 27 27 27 27 25 4 3 4 4 2 4 5 6 8 11 11 11 9 6 6 13 5 4 5 2 4 8 8 9 5 3 3 5 3 2 1 1 2 4 1 2
20 24 23 24 26 25 27 25 26 26 24 8 4 3 3 1 3 3 6 7 5 4 4 5 4 1 2 3 2 3 3 5 3 3 4 4 5 4 2 4 5 3 3 2 1 3 3
21 22 23 24 24 25 26 25 25 24 23 9 3 5 3 3 5 8 2 1 4 2 4 5 5 2 2 2 2 2 3 2 4 4 2 3 3 3 2 3 3 3 3 2 6 6 4
20 21 22 22 24 25 25 25 25 24 21 9 2 6 3 4 8 10 7 6 5 2 2 4 4 2 1 1 3 1 3 2 6 3 2 1 4 2 3 4 5 4 4 6 5 2 4
19 19 20 23 24 25 24 24 24 22 17 11 2 4 6 6 5 9 12 11 7 6 4 1 2 5 3 2 3 4 3 3 5 3 5 0 3 5 4 4 2 3 3 2 3 5 1
Wind_Direction
7 5 2 358 356 350 349 347 346 344 341 338 336 337 340 336 333 329 326 313 287 238 213 217 209 186 193 209 254 114 173 165 164 186 211 199 188 203 216 190 212 208 202 219 122 120 81
4 3 0 356 354 350 347 346 343 343 340 338 336 337 337 335 331 329 324 311 275 227 202 206 204 190 253 230 30 92 136 160 172 187 200 195 207 221 272 245 200 189 235 172 157 163 120
2 358 355 351 352 348 345 343 343 339 339 338 337 335 333 333 332 330 322 303 262 205 190 201 198 204 246 243 354 112 148 169 163 190 181 205 251 229 231 247 82 188 201 215 195 165 114
355 357 353 352 352 347 343 339 340 337 335 336 336 334 332 333 332 330 324 309 195 178 170 196 177 223 262 18 313 155 177 147 173 193 205 133 25 322 261 32 110 211 223 209 186 167 150
356 354 351 348 346 343 343 341 338 335 334 334 333 333 332 330 331 330 327 312 154 153 162 154 166 242 254 192 184 182 164 157 143 134 60 107 158 222 151 243 192 207 206 195 138 171 139
354 349 356 352 351 344 346 346 339 335 334 333 331 331 330 327 328 326 321 262 153 143 174 181 279 203 212 215 163 155 182 159 152 133 124 157 189 189 209 220 201 202 227 183 143 175 121
4 353 347 349 351 348 346 343 338 334 333 331 329 327 325 324 321 321 315 138 167 164 220 191 196 220 132 68 125 166 197 160 141 175 158 201 184 201 206 227 269 315 249 165 122 119 93
356 354 353 352 351 349 345 339 338 335 333 330 327 322 319 317 308 303 280 242 39 353 227 228 266 212 124 186 146 169 178 176 167 184 174 144 229 219 220 229 238 269 296 101 111 137 102
0 354 357 354 352 349 347 341 339 335 333 330 325 319 313 306 300 257 235 230 32 326 258 166 199 192 176 205 165 174 194 206 192 198 201 169 323 204 240 211 241 241 228 260 145 122 118
358 0 355 355 353 349 346 344 340 336 332 328 322 315 305 292 183 213 215 241 272 307 269 158 193 209 155 212 62 145 219 202 211 202 171 240 233 180 186 214 199 237 214 257 133 141 181
3 0 355 350 351 348 346 346 339 336 333 328 320 310 289 238 328 212 360 347 116 239 253 133 134 73 155 166 129 197 78 158 193 208 141 206 141 187 181 202 196 206 348 159 226 180 341
358 356 356 352 351 349 348 345 341 338 336 331 323 305 274 195 218 292 295 229 167 219 234 157 133 172 169 152 112 123 178 256 320 157 295 16 349 188 228 59 6 126 116 95 104 159 258
360 360 355 356 353 351 349 347 343 341 339 336 331 305 213 306 66 324 241 202 175 233 141 163 179 165 170 164 142 164 168 181 164 149 193 178 178 98 260 106 16 226 154 129 174 213 227
5 360 359 355 355 352 351 348 345 344 341 337 337 287 205 347 321 275 223 215 239 188 68 55 138 164 173 149 130 177 166 170 30 321 198 177 180 152 167 308 178 200 201 166 208 189 208
4 5 358 359 358 355 353 350 348 346 342 337 322 206 184 105 260 266 219 217 350 13 338 122 160 176 128 155 181 165 189 163 72 31 258 193 128 85 32 0 22 183 226 353 324 258 268
5 4 3 2 1 359 357 353 350 348 344 337 288 222 80 112 197 239 225 227 87 22 338 293 184 205 180 182 163 192 173 23 115 41 328 41 109 12 122 282 99 357 341 128 229 225 226
5 6 7 4 3 2 360 356 353 350 345 337 250 249 48 136 233 227 229 97 122 62 345 355 344 122 308 167 200 188 138 33 13 71 313 9 77 104 165 23 359 20 186 253 272 257 240
8 7 7 7 4 4 3 359 357 355 346 312 299 248 354 208 174 257 82 19 7 93 11 66 32 25 26 13 16 63 113 43 345 293 94 53 39 84 79 79 26 57 34 12 125 306 54
11 5 8 8 5 5 4 2 359 359 7 330 286 98 320 269 196 143 127 74 45 85 34 5 107 46 12 48 87 91 85 28 348 40 51 326 354 107 125 170 92 61 11 357 136 39 253
10 5 10 7 7 7 6 3 360 1 3 315 319 256 104 44 298 140 156 149 115 33 74 47 116 91 96 61 38 116 115 57 24 71 39 347 62 80 163 93 98 104 57 18 70 100 285
11 7 9 8 8 8 7 5 3 0 350 308 26 64 226 17 33 330 135 140 135 132 68 341 78 40 125 134 119 112 103 138 51 23 45 64 97 84 57 71 66 70 53 27 74 79 120
7 8 6 8 8 8 9 10 7 5 349 70 11 358 0 30 323 99 254 138 132 116 356 63 115 121 64 79 4 157 137 148 118 58 71 356 112 103 78 60 90 87 36 84 80 90 94
5 4 4 6 8 7 9 11 13 13 9 19 352 326 259 4 256 307 36 90 113 122 354 95 110 94 84 81 75 72 70 69 72 91 83 76 121 106 94 109 137 53 11 19 100 54 346
5 5 5 0 4 6 8 9 12 15 20 5 16 294 295 76 39 36 82 93 99 42 132 56 40 97 128 120 93 76 74 68 58 39 13 119 75 60 142 102 1 138 68 31 88 78 78
7 5 5 360 0 3 4 7 6 10 12 4 11 348 325 76 98 93 93 104 93 83 75 60 13 120 160 181 114 128 97 75 21 24 13 54 90 80 126 144 125 307 353 160 144 179 10
2 3 2 2 360 358 1 3 1 4 5 357 47 335 289 208 32 349 145 150 146 111 84 100 33 30 4 247 95 136 151 97 113 87 8 36 31 103 127 137 200 219 146 141 70 306 187
3 2 3 1 355 356 356 358 358 358 360 357 41 1 265 102 28 342 29 344 7 66 91 120 161 176 284 238 95 92 87 2 133 104 149 83 18 119 187 108 290 206 144 116 87 231 132
359 355 359 357 356 354 351 353 357 356 355 4 43 20 344 64 42 24 25 12 341 6 155 138 115 293 202 187 115 112 92 68 81 34 42 105 129 114 41 73 284 159 43 140 199 345 144
353 352 355 354 353 349 346 351 351 349 350 360 30 18 54 59 81 104 80 53 24 337 316 46 33 57 37 98 70 103 89 68 159 133 33 279 156 149 121 198 187 38 134 198 114 139 109